Theta_e
312 316 317 317 318 317 315 316 316 315 315 315 316 316 315 316 317 315 313 309 308 312 314 314 314 315 315 311 306 304 304 304 304 303 303 301 301 300 300 299 299 298 297 297 296 295 295 295 296 297 297 298 301 304 307 309 310 309 309 310 310 309 310 312 312 312 311 309 308 307 305 303 301 302 302 301 302 302 303 303 303 304 304 305 305 306
311 316 319 318 317 315 314 314 313 313 313 314 315 316 316 316 316 314 312 309 307 311 314 312 312 314 314 310 305 304 305 305 304 303 302 301 300 300 299 299 298 297 297 297 297 296 296 295 295 296 296 297 299 301 305 307 307 307 308 308 306 306 308 309 309 309 309 306 305 305 302 301 300 299 300 300 300 300 300 301 301 301 301 302 302 302
314 317 317 315 313 311 311 311 311 312 313 313 314 315 316 316 316 314 311 308 308 311 314 312 311 315 314 308 304 304 304 303 301 302 301 300 300 299 299 298 298 297 297 297 297 296 296 295 295 295 295 296 297 299 302 304 304 305 306 306 305 306 308 308 307 307 306 303 303 303 301 300 299 297 297 298 298 298 299 299 299 299 299 299 299 299
317 316 314 312 310 310 310 309 310 312 312 314 314 315 317 316 317 318 313 309 308 309 312 311 312 315 313 307 304 303 302 301 299 299 299 299 299 299 298 297 297 298 297 297 297 296 296 295 295 295 294 296 297 298 300 302 304 305 306 306 307 308 308 307 306 305 304 303 302 301 299 298 297 295 295 296 295 295 296 296 296 296 297 297 297 297
317 313 310 310 310 312 312 309 310 313 313 314 314 315 318 316 316 317 314 310 309 309 309 311 314 317 314 311 308 303 300 300 299 298 298 298 298 297 296 296 296 296 296 296 296 296 296 295 294 294 294 294 296 297 299 300 303 304 305 308 308 308 307 305 305 303 301 300 299 297 296 295 294 293 292 292 291 291 291 291 291 291 292 292 292 292
316 311 308 310 310 312 314 312 312 315 316 317 315 314 315 316 315 314 313 312 314 315 311 311 319 320 314 312 310 305 302 302 300 299 299 298 297 297 297 297 296 295 295 295 295 295 295 295 294 293 293 293 294 295 296 298 300 302 303 306 306 306 305 304 304 302 300 298 296 295 294 293 292 291 290 290 289 288 288 288 288 288 288 288 288 288
314 309 310 313 312 313 315 314 314 315 317 319 317 314 313 314 314 314 313 314 317 319 311 309 318 321 315 314 311 306 305 304 302 301 300 299 298 298 298 297 296 295 295 295 294 294 294 294 294 293 292 292 292 293 294 295 297 299 301 302 303 303 302 301 301 301 300 298 297 296 293 291 290 290 289 288 288 287 287 287 287 287 287 287 287 287
312 310 312 315 315 315 315 316 315 313 317 320 316 313 312 313 314 314 314 315 316 316 312 309 314 317 317 315 309 305 306 305 303 303 301 300 298 298 297 296 296 295 295 295 294 294 294 293 293 292 291 291 291 292 292 293 295 297 299 300 300 300 299 299 299 299 298 297 296 294 291 289 289 289 288 287 287 287 287 286 286 286 286 286 287 287
313 314 315 315 315 316 316 317 314 313 317 318 311 310 311 312 314 314 314 315 314 314 316 314 313 315 318 315 307 305 308 307 306 304 303 300 299 298 297 296 296 295 294 294 294 294 293 292 292 291 290 290 290 291 291 292 294 295 297 298 298 298 297 297 297 297 296 295 293 291 289 288 288 288 288 287 287 286 286 286 286 286 286 286 286 286
311 310 312 314 316 317 316 313 311 314 317 312 308 309 310 310 312 312 314 314 312 314 319 318 314 316 319 317 312 309 310 311 308 306 304 301 299 298 297 296 296 294 294 294 294 293 292 291 290 290 289 289 289 290 290 292 292 293 294 295 296 295 294 294 295 294 293 292 291 289 288 288 288 288 288 287 287 287 286 286 286 286 286 285 285 285
307 305 308 312 314 313 310 306 307 312 313 309 310 312 311 311 311 311 312 312 314 317 318 316 314 316 318 319 317 314 312 311 310 307 304 301 299 299 298 297 296 295 294 293 293 292 291 290 289 289 289 289 288 289 289 290 291 291 292 293 293 292 291 292 292 291 291 290 289 289 288 288 288 288 288 287 287 287 287 286 286 286 285 285 285 285
308 307 310 310 308 308 309 307 305 306 307 310 313 314 315 314 312 313 312 312 317 320 315 310 311 314 317 318 316 314 310 308 309 308 304 302 300 299 298 297 296 295 294 293 293 292 291 290 289 289 289 288 288 288 289 289 290 290 290 291 291 290 290 290 290 290 289 289 289 288 288 288 288 288 288 287 287 287 287 287 286 286 286 285 285 285
313 312 311 309 306 307 312 312 308 306 307 311 313 314 318 318 315 317 317 315 318 318 310 307 309 313 316 317 314 312 309 306 306 307 304 302 301 299 298 297 296 295 294 292 292 292 291 291 290 289 289 289 288 288 288 288 289 289 289 290 290 289 289 289 289 289 289 288 288 288 288 288 288 288 288 287 287 287 287 287 287 286 286 286 285 285
317 316 311 311 309 308 312 314 313 311 309 311 314 316 320 320 319 321 319 316 317 315 308 307 310 314 316 315 312 310 307 303 302 302 303 303 301 300 298 297 296 294 293 292 292 292 291 291 290 290 289 289 289 288 288 288 288 289 288 289 289 289 288 289 289 288 288 288 288 288 288 288 288 288 288 288 287 287 287 287 287 286 286 286 285 285
322 321 314 313 313 310 312 314 316 314 311 312 313 316 318 318 320 322 320 318 318 314 309 308 312 316 317 313 306 303 301 299 299 298 300 302 301 300 298 296 295 294 293 293 292 292 291 290 290 289 289 289 289 288 288 288 288 288 289 289 289 289 288 289 288 288 288 288 288 288 288 288 288 288 288 288 288 287 287 287 287 286 286 285 285 285
321 322 314 312 311 310 312 314 314 313 313 311 310 313 316 316 316 315 314 314 312 312 311 310 313 315 314 308 300 299 299 298 298 298 298 300 300 298 298 296 295 294 293 292 291 292 291 290 290 289 289 289 288 288 288 288 288 288 288 289 289 289 288 288 288 288 288 288 288 288 288 289 288 288 288 288 288 288 287 287 286 286 285 285 284 284
318 318 312 309 309 308 310 312 312 314 314 311 310 314 314 313 314 312 311 308 309 315 316 313 314 313 311 310 302 299 301 299 298 298 299 300 299 298 298 297 296 295 294 293 292 292 291 290 289 289 289 289 288 288 288 288 288 289 289 289 289 288 288 288 288 288 288 288 289 288 288 288 288 288 288 288 288 288 287 287 286 286 285 285 285 284
317 317 312 310 311 308 305 309 311 311 312 311 313 315 312 311 313 313 315 313 312 318 317 313 315 315 314 314 307 302 304 303 300 299 299 299 298 298 298 297 296 295 294 293 292 292 291 290 290 289 289 289 288 288 288 288 288 288 288 289 288 288 288 288 288 288 288 288 288 288 288 288 288 288 288 288 288 288 287 287 286 285 285 285 284 284
317 317 313 309 311 308 304 309 312 309 309 310 312 313 313 315 316 314 316 318 317 319 317 313 313 313 315 316 311 308 307 306 302 300 299 299 298 298 298 298 296 295 294 293 292 292 291 290 290 289 289 288 288 288 288 288 288 288 288 288 288 288 288 288 288 288 288 288 288 288 288 288 288 288 287 287 287 287 287 286 285 285 284 284 284 283
314 317 317 310 309 309 307 310 313 311 309 308 309 310 311 314 316 315 315 316 318 319 317 315 313 313 315 315 313 312 310 308 304 300 300 301 300 299 299 298 297 295 295 293 292 292 292 291 290 289 289 288 288 287 287 287 288 288 288 288 288 288 288 288 288 288 288 288 288 288 287 287 287 287 287 287 287 286 286 285 285 284 284 283 283 283
312 315 317 311 308 310 310 312 314 313 311 309 311 312 311 311 312 313 313 312 315 317 317 317 317 316 312 311 313 313 311 309 306 302 302 302 300 299 299 299 298 296 295 294 293 292 292 290 290 289 289 288 288 287 287 287 287 287 288 288 288 288 288 288 288 288 288 287 287 287 287 287 287 287 287 287 286 286 285 284 284 283 283 282 282 282
313 313 316 313 310 312 313 312 311 312 312 312 312 313 313 313 313 315 317 312 310 314 315 315 318 317 310 306 308 310 309 308 307 305 304 302 300 300 299 299 298 296 295 294 293 293 292 290 290 289 289 288 288 287 287 287 287 287 287 288 288 288 288 287 287 287 287 287 287 287 287 287 287 287 286 286 285 285 284 284 283 282 282 282 282 281
316 314 314 314 312 312 311 308 305 307 311 312 312 313 315 314 314 317 319 314 310 312 312 311 315 317 309 302 303 304 303 303 303 304 303 302 301 300 299 299 298 297 296 294 294 293 291 291 290 289 289 288 288 288 288 288 287 287 287 287 288 288 287 287 287 287 287 287 287 287 287 287 286 286 286 285 285 284 284 283 283 282 282 282 281 281
316 315 315 315 313 311 309 307 305 306 309 311 312 312 313 314 316 317 317 315 314 314 313 312 316 316 308 302 301 301 299 299 300 301 302 302 301 300 299 299 298 297 296 294 293 293 291 291 290 289 289 288 288 289 288 288 288 287 287 287 287 287 287 287 287 287 287 287 287 286 287 286 286 286 285 285 284 284 283 283 283 283 282 282 281 281
315 316 316 316 316 316 314 313 312 310 310 311 312 311 312 315 316 314 313 313 314 317 316 316 319 317 309 304 302 301 300 300 299 299 300 301 300 299 298 298 298 297 295 294 293 292 291 291 290 290 289 289 289 289 289 288 288 288 287 287 287 287 287 287 287 287 287 286 286 286 286 286 285 285 284 284 284 284 283 283 283 283 282 282 281 281
315 318 317 317 320 320 319 319 317 315 313 312 313 312 312 314 313 313 313 314 315 317 317 317 318 316 310 306 305 304 303 303 301 298 298 298 299 299 298 298 297 296 295 294 293 292 291 291 290 290 289 289 289 289 289 288 288 288 287 287 287 287 287 287 286 286 287 286 286 286 286 285 285 284 284 284 283 283 283 283 283 283 282 282 281 280
316 319 318 318 320 320 322 323 319 317 316 314 314 313 313 313 313 314 314 315 316 315 315 316 316 315 312 308 308 308 306 306 305 301 298 297 297 297 298 298 297 296 295 294 293 292 291 291 290 290 289 289 289 289 289 288 288 287 287 287 287 287 287 287 286 286 286 286 286 286 286 285 285 284 284 283 283 283 283 283 283 283 282 282 281 280
319 318 317 319 320 320 323 322 318 317 316 316 316 314 313 312 313 315 315 315 317 316 316 317 316 317 315 311 312 312 309 309 308 304 300 299 298 297 297 297 296 296 295 294 293 292 291 291 291 290 290 289 289 289 288 288 287 287 287 287 287 287 287 287 287 287 286 286 286 286 285 285 284 284 284 283 283 283 283 283 283 283 282 281 281 280
319 317 318 318 317 318 319 316 315 317 316 316 316 315 313 311 312 314 314 314 316 316 317 317 316 317 316 313 314 313 310 310 310 305 301 300 298 297 297 296 296 296 295 294 293 292 291 291 291 291 290 289 289 289 288 288 287 287 287 287 287 287 287 287 287 287 286 286 285 285 285 285 284 284 283 283 283 283 283 283 283 282 282 281 280 280
317 318 318 317 317 317 315 314 315 316 315 315 315 315 314 312 311 312 313 314 315 316 316 314 314 315 314 314 315 312 309 308 306 302 301 300 299 298 297 296 296 296 295 294 294 293 292 292 291 291 290 290 289 289 288 287 287 287 287 287 287 287 287 287 287 287 286 285 285 285 285 284 284 284 283 283 283 282 283 283 282 282 281 280 280 279
315 317 316 315 317 316 311 312 314 313 313 314 315 315 314 313 312 312 313 313 314 315 314 313 313 313 312 313 312 308 306 305 303 301 301 300 299 298 297 297 297 297 296 295 294 294 293 292 292 291 290 290 289 288 288 288 287 287 287 287 287 287 287 287 287 286 285 285 285 285 284 284 284 284 283 283 282 282 282 282 282 281 280 280 279 278
313 314 312 313 320 316 308 309 312 310 310 313 313 313 312 312 313 313 312 313 313 314 314 313 314 314 311 310 308 305 304 305 304 303 302 300 299 298 298 298 297 297 297 296 295 294 293 292 292 291 291 290 289 288 288 288 287 287 287 287 287 287 287 287 286 286 285 285 285 284 284 284 284 283 283 282 282 282 283 282 281 280 279 279 278 278
310 312 311 314 320 314 305 306 309 309 312 315 313 312 311 311 312 312 312 312 312 313 314 314 314 313 310 308 307 305 304 304 304 303 302 301 299 298 298 298 298 297 297 296 295 294 293 293 292 291 291 290 289 289 288 288 288 287 287 287 287 287 287 286 285 285 285 285 284 284 284 284 284 283 282 282 282 283 282 282 280 279 278 278 277 277
309 312 312 313 316 310 302 305 309 312 317 314 307 308 311 311 311 311 311 311 310 311 312 312 311 310 310 309 308 307 305 304 303 302 301 301 299 298 298 298 297 297 296 296 295 294 294 293 293 292 291 290 290 289 289 288 288 287 287 287 287 287 286 285 285 284 284 284 284 284 284 284 283 282 282 282 282 282 282 281 279 278 277 277 277 276
310 311 311 311 311 306 303 307 313 316 315 306 298 299 305 308 310 310 310 309 309 309 310 311 309 307 307 308 307 305 303 301 299 299 298 298 298 299 298 298 297 296 296 295 295 295 295 294 293 293 292 291 290 290 289 288 288 287 286 286 286 286 285 285 284 284 284 284 283 284 284 284 283 282 282 282 282 281 281 280 278 277 277 276 276 276
310 310 309 308 307 304 305 310 314 314 310 302 296 296 300 305 307 309 310 309 308 308 308 309 309 306 304 303 301 299 297 296 294 295 295 294 295 297 297 298 297 296 296 296 295 295 295 294 294 293 292 290 290 289 289 288 288 287 286 286 286 285 285 284 284 284 283 283 283 284 284 283 283 282 282 282 281 281 280 279 277 277 276 276 276 275
308 311 310 309 308 306 307 310 311 311 310 306 301 298 301 305 306 307 310 309 307 306 306 307 308 306 303 300 296 293 293 294 295 295 295 294 294 295 296 296 296 295 295 294 294 294 294 293 293 292 292 291 290 289 289 288 287 286 285 285 285 284 284 283 283 284 284 283 283 284 284 283 283 282 282 281 281 280 279 278 277 276 276 276 275 275
304 308 311 312 311 308 308 309 309 310 312 311 305 300 299 302 303 304 308 307 303 303 304 306 306 306 302 298 294 292 293 295 297 297 295 294 293 293 293 293 292 292 292 291 291 291 291 291 292 292 291 291 289 289 288 287 287 286 284 284 283 283 283 283 283 284 284 283 283 284 283 283 282 282 281 280 280 279 278 278 277 276 276 275 275 274
302 304 307 311 312 309 309 311 311 311 311 308 302 297 296 298 299 301 304 304 301 300 302 304 305 304 301 296 293 293 295 297 298 297 295 293 291 291 292 292 290 289 290 289 289 289 289 289 290 290 290 289 289 288 288 287 286 285 284 283 283 283 283 283 284 284 283 283 283 283 283 282 282 281 280 280 279 279 278 277 276 276 275 275 274 273
302 304 305 309 311 310 310 311 311 311 309 304 299 295 293 296 299 303 305 303 300 298 298 302 304 301 298 296 293 294 297 297 297 296 294 291 290 289 290 291 290 289 288 288 288 288 288 288 288 288 288 288 288 288 287 287 285 284 284 283 283 283 284 285 285 284 283 283 283 283 282 282 281 281 280 279 279 278 278 277 276 275 275 274 273 273
302 303 304 307 310 310 311 311 310 310 306 300 296 294 293 296 299 305 306 299 296 296 295 297 300 298 295 295 294 294 297 295 294 294 292 291 291 290 288 287 288 288 288 288 289 289 288 288 289 289 289 289 289 288 287 286 285 284 284 283 282 284 286 286 285 283 282 283 282 282 282 281 280 280 279 279 278 277 277 276 275 275 274 273 273 272
303 303 303 306 308 308 310 310 310 310 304 296 293 291 293 297 302 303 300 295 295 297 294 293 295 294 293 294 294 294 295 292 290 291 292 291 292 291 288 286 286 287 287 287 289 289 289 289 288 289 290 289 289 289 288 286 285 284 283 282 284 286 286 284 283 282 282 282 282 281 281 280 280 279 279 278 278 277 276 275 275 274 273 272 272 271
304 305 304 305 307 307 308 308 310 311 302 293 293 293 293 298 302 299 295 293 293 295 293 291 292 292 292 294 293 292 292 290 289 290 291 290 290 290 288 286 286 286 286 286 288 288 289 289 289 289 289 288 288 288 287 286 285 283 282 283 286 287 285 283 283 282 282 282 281 281 280 280 279 279 278 278 277 276 275 274 274 273 272 272 271 270
304 305 304 306 307 306 307 308 308 305 298 294 297 298 296 298 299 297 296 295 292 290 291 291 292 291 291 293 293 291 290 290 290 290 289 289 289 288 287 286 286 286 286 287 288 288 288 288 288 288 288 287 287 287 286 286 285 282 282 285 286 285 283 282 282 281 281 281 281 280 279 279 278 278 277 276 276 275 274 273 273 272 271 271 270 270
302 302 301 303 304 304 304 303 299 296 294 294 297 298 298 299 297 295 297 297 293 290 290 292 292 291 289 291 292 290 289 289 290 289 289 289 289 289 288 287 286 286 287 287 288 288 287 287 287 286 286 286 286 285 285 285 284 283 284 286 285 283 282 282 281 281 281 280 280 279 279 278 277 277 276 276 275 274 273 273 272 271 271 270 269 269
295 295 296 298 299 298 296 295 294 294 294 294 294 294 295 296 294 292 295 297 294 292 291 291 293 292 290 290 291 290 290 289 289 288 288 289 290 289 287 286 285 286 286 286 287 287 286 286 285 284 284 284 285 285 284 284 284 284 285 285 283 282 281 281 280 280 280 279 279 278 277 277 276 276 275 275 274 273 272 272 271 270 270 269 269 268
292 291 294 296 297 298 297 294 293 293 293 293 294 292 292 293 291 289 292 294 293 291 291 292 292 291 290 289 290 291 291 289 289 289 288 288 290 289 286 285 285 285 286 287 287 287 286 284 283 283 283 284 285 285 284 284 284 283 283 282 281 280 280 279 279 279 278 278 277 277 276 276 275 275 274 273 273 272 271 271 270 269 269 269 268 268
294 292 294 295 295 295 294 292 290 290 290 291 292 292 292 293 291 289 288 290 290 290 290 290 290 289 289 289 289 290 290 289 289 290 289 288 289 288 286 285 286 286 287 288 286 286 285 284 284 283 283 285 286 286 285 284 284 282 281 280 279 279 278 278 278 278 277 277 276 276 275 274 274 273 273 272 272 271 270 270 269 269 269 268 268 267
294 293 294 294 293 292 291 289 289 289 290 290 290 291 291 292 291 290 288 288 289 290 290 289 288 288 288 289 288 289 290 290 289 290 291 290 290 288 286 286 287 288 288 287 286 286 285 284 284 284 284 286 287 286 284 284 283 281 280 278 278 278 278 277 277 276 276 276 275 275 274 273 272 272 272 271 271 270 269 269 269 268 268 268 268 268
293 294 293 292 293 293 292 291 290 292 293 293 292 292 291 290 290 290 289 289 290 291 291 291 289 287 286 287 287 288 290 290 289 289 289 290 289 288 286 286 287 287 287 287 286 285 284 284 284 284 284 286 285 284 284 283 282 280 278 277 276 277 277 276 275 275 275 275 274 273 273 272 272 272 271 270 270 269 269 268 268 268 268 268 268 268
293 294 293 293 294 294 293 292 292 292 294 294 293 292 292 290 289 290 290 291 291 291 290 291 291 289 287 286 285 286 289 290 288 288 289 288 287 286 287 287 286 286 287 286 284 283 283 284 283 282 283 284 284 283 283 282 280 279 278 276 276 276 276 276 275 275 274 274 273 273 273 272 272 271 270 269 269 268 268 267 267 267 267 267 267 267
Wind_Speed
1 4 6 8 8 9 12 13 7 1 3 1 2 3 5 6 7 3 3 2 1 3 7 7 8 12 9 4 6 4 4 4 4 4 3 3 2 2 2 2 2 3 3 3 4 6 7 7 8 11 12 12 15 18 19 20 22 23 25 26 26 27 29 29 29 29 30 31 31 31 32 33 32 30 30 30 28 27 26 24 24 24 22 21 20 20
2 6 11 10 5 4 8 8 4 2 3 3 4 4 5 7 8 3 2 2 1 3 5 3 6 12 9 3 6 4 5 5 3 4 3 3 3 2 2 2 2 2 2 2 4 5 6 7 8 10 11 13 16 19 20 21 21 22 23 24 23 23 26 27 27 27 28 29 29 30 32 32 32 31 31 31 29 27 26 25 25 25 23 22 22 22
4 10 11 5 5 5 2 4 6 6 5 4 4 4 5 5 5 3 2 3 2 4 3 2 5 10 5 4 4 4 4 3 1 2 2 2 3 3 2 2 2 2 2 3 4 5 5 7 7 8 10 14 17 19 21 22 22 22 23 23 23 23 25 25 25 26 27 28 28 29 30 30 31 32 32 31 30 28 28 28 27 26 25 25 24 24
6 8 6 6 8 6 4 4 7 5 4 6 5 5 7 3 2 5 1 3 2 2 2 1 5 9 4 3 4 3 3 3 3 2 2 1 2 2 2 1 2 3 3 3 3 4 4 5 7 8 10 13 16 19 21 22 23 23 24 24 24 24 24 25 24 24 25 26 27 29 31 32 33 33 33 33 32 31 30 30 29 28 27 26 26 25
6 1 1 8 9 9 6 5 8 6 5 7 7 8 8 5 7 7 1 2 2 2 2 2 7 8 6 6 4 4 4 4 4 4 4 3 3 3 3 2 2 2 2 3 3 3 4 5 7 8 8 11 14 17 19 21 23 25 25 25 25 25 25 25 25 26 27 27 27 28 28 29 30 29 29 30 30 31 32 31 31 30 29 29 29 28
5 3 5 8 8 9 8 6 9 8 6 6 8 12 12 10 8 5 2 1 4 4 3 3 6 4 4 6 5 4 5 5 4 5 5 5 5 5 5 4 3 2 2 2 2 2 4 5 6 7 8 10 12 14 16 18 21 23 25 26 26 26 26 26 26 26 27 27 24 22 21 21 21 22 22 22 24 27 30 31 31 31 30 30 30 30
2 4 5 6 7 9 8 7 8 8 6 5 4 8 12 10 6 5 5 4 4 3 1 1 6 4 2 4 5 5 5 5 5 5 6 5 5 5 5 4 4 4 3 3 2 3 4 5 6 7 8 9 10 12 15 17 18 21 23 25 25 26 26 26 26 25 26 27 26 25 26 23 20 20 19 21 24 27 29 30 30 30 29 29 29 29
4 5 4 5 6 7 7 6 7 10 7 3 1 2 7 8 7 8 8 6 4 2 0 3 4 5 4 2 4 5 5 5 7 7 7 7 6 6 5 5 5 5 4 4 4 4 4 5 6 6 7 7 10 13 16 18 19 21 22 23 24 24 25 25 25 25 26 28 29 31 33 30 25 24 23 24 27 28 29 30 30 29 28 28 28 27
3 7 8 9 7 6 6 2 7 13 7 0 2 2 4 4 5 7 6 5 2 1 4 6 4 4 6 3 4 4 5 7 9 10 10 9 9 8 7 7 6 6 5 4 4 4 4 4 5 6 6 7 10 14 17 20 22 23 23 24 25 25 26 26 26 27 28 30 32 33 34 33 29 27 25 26 27 28 28 29 28 28 27 26 26 25
2 2 4 7 7 6 3 3 3 10 5 3 5 6 7 5 4 4 4 3 2 3 8 7 9 5 5 4 4 3 5 8 9 10 10 11 10 9 9 9 7 6 5 4 4 4 4 4 4 5 6 8 12 16 18 21 23 24 25 26 27 28 28 29 28 29 29 31 33 34 34 33 29 26 26 26 26 26 26 27 26 26 25 25 24 24
2 1 2 2 3 2 5 6 3 1 3 7 7 6 7 5 4 3 1 1 2 6 6 5 9 7 5 4 6 4 2 3 8 10 10 11 11 11 9 9 9 7 6 6 5 5 4 4 4 5 7 9 13 17 19 22 24 25 26 28 29 29 29 30 29 29 31 31 32 33 33 32 30 28 27 26 25 24 24 24 23 23 23 23 22 22
1 2 1 1 1 3 6 5 4 3 2 4 4 5 5 3 2 2 2 2 5 6 2 1 3 6 6 4 4 3 2 2 7 10 13 15 13 12 10 9 9 8 7 7 6 7 7 6 6 6 7 9 12 15 19 22 24 26 27 28 30 30 29 30 30 30 31 31 32 31 31 30 29 28 27 26 25 24 23 22 21 20 21 21 20 20
2 4 2 1 0 3 6 6 4 2 2 3 4 7 6 3 3 4 3 3 6 3 2 2 1 4 7 6 3 3 4 3 3 4 11 17 15 13 12 10 9 8 8 8 6 7 8 8 9 9 9 10 10 13 18 22 25 26 27 28 31 30 30 30 30 30 30 30 30 29 29 28 28 27 27 26 25 23 22 21 20 20 19 19 19 19
3 2 3 4 2 4 9 8 5 5 6 7 8 8 7 5 4 5 4 2 4 1 2 1 1 3 4 5 3 2 4 3 2 1 5 13 15 14 13 11 9 8 8 7 7 7 9 10 10 10 11 11 11 13 17 21 24 27 27 29 31 30 30 30 29 29 29 28 28 27 27 27 26 26 26 25 24 23 21 21 21 20 19 19 18 18
6 3 6 9 4 7 13 8 3 7 8 7 4 3 5 4 4 4 3 3 2 2 2 1 2 4 3 1 2 3 4 3 2 2 1 6 10 10 10 9 9 9 8 7 7 8 10 11 11 11 11 11 12 14 17 21 24 27 28 29 31 30 29 28 28 28 27 27 26 25 25 25 25 25 24 23 22 21 20 20 19 19 18 17 17 16
6 4 3 3 0 9 12 3 3 7 6 3 1 1 4 3 2 0 1 0 2 1 2 3 3 3 2 2 2 2 2 2 2 1 3 6 8 9 9 9 9 9 9 8 8 9 10 11 11 11 11 12 13 15 18 22 25 28 29 29 29 29 28 27 27 27 26 26 25 24 23 23 22 22 22 21 20 19 19 18 18 17 16 16 15 15
4 2 2 2 1 4 4 1 2 2 3 4 3 5 3 1 2 2 0 2 1 4 3 4 4 3 1 2 2 3 1 3 3 3 6 8 9 10 9 9 9 9 9 9 8 9 12 12 12 12 12 13 14 16 19 23 26 28 29 29 29 28 27 26 26 25 25 24 23 22 21 21 20 20 19 19 18 17 16 16 16 15 15 14 14 14
3 1 2 1 1 1 3 0 3 3 1 5 5 5 3 1 1 1 3 1 2 6 3 4 7 5 4 3 2 4 5 6 7 6 7 8 10 11 11 10 10 9 9 9 9 11 13 13 13 13 13 14 16 17 20 24 27 29 29 29 29 28 26 25 24 24 23 22 21 20 19 18 18 17 17 16 15 14 14 14 14 13 13 13 12 13
3 2 1 1 1 2 1 2 4 1 1 1 2 2 2 3 4 3 3 2 3 6 3 4 6 6 7 5 3 7 10 10 10 9 9 12 13 13 12 11 11 10 10 10 10 11 12 14 14 14 15 15 17 17 20 25 28 28 28 27 27 26 25 24 22 22 20 19 19 19 17 16 15 15 14 13 12 11 11 11 11 11 11 11 10 10
2 3 2 1 0 2 2 5 7 6 2 1 1 2 0 3 3 3 3 1 3 5 3 3 3 4 7 7 8 12 12 12 13 10 12 15 16 14 12 12 12 12 11 11 10 11 13 15 15 16 16 16 18 19 22 26 27 27 28 27 26 25 24 22 21 20 19 18 17 16 15 14 13 12 11 10 9 9 9 9 9 9 10 9 9 10
2 3 3 2 1 3 5 6 7 8 7 5 6 6 4 2 0 1 2 1 1 4 3 4 4 3 4 3 7 9 8 11 14 13 13 14 15 14 12 12 12 11 12 11 10 11 14 15 15 15 15 15 18 21 24 26 25 26 27 27 26 25 24 22 21 19 18 17 15 14 13 12 11 10 9 8 7 7 8 8 8 8 8 8 8 9
3 3 3 4 4 5 3 1 1 2 3 5 7 9 8 6 4 4 5 2 0 3 2 3 6 3 3 1 1 1 0 5 10 11 10 11 14 14 13 13 12 11 11 11 10 11 13 15 15 14 14 15 18 21 23 24 24 25 27 27 26 25 24 23 21 19 18 17 15 13 12 10 9 8 7 6 6 6 7 7 7 7 8 8 9 10
2 2 4 3 3 3 1 3 2 3 2 1 3 4 5 6 6 7 6 3 2 2 1 0 5 3 2 1 1 1 1 2 3 6 7 8 11 13 13 12 12 10 10 9 10 11 13 14 14 14 15 17 19 20 21 22 23 25 27 27 27 26 25 23 21 20 18 16 15 13 11 9 8 7 6 5 5 5 5 6 7 8 10 10 11 12
1 2 4 3 1 1 2 0 0 2 1 2 3 2 4 4 3 3 2 2 3 5 4 2 6 3 2 1 1 0 1 2 3 5 7 7 8 10 11 11 11 10 9 9 9 11 12 13 14 15 16 18 19 19 19 21 23 25 27 28 28 26 25 23 22 20 18 17 15 13 11 9 8 7 5 4 3 3 5 7 8 9 10 10 11 12
6 5 6 5 3 3 2 4 4 3 4 5 3 4 5 5 4 2 2 2 4 6 8 6 8 3 3 1 0 0 1 1 3 5 6 6 6 8 10 10 10 9 9 10 10 11 13 14 15 16 17 19 20 19 19 22 24 25 28 30 29 27 26 24 23 21 19 17 16 14 12 10 9 7 6 4 3 3 5 7 8 8 9 10 10 11
7 6 9 10 9 10 9 7 6 5 4 3 2 5 8 8 9 5 2 4 6 5 9 9 7 1 3 1 1 2 1 2 3 4 6 5 5 7 9 9 9 9 10 12 12 11 12 14 15 17 19 20 20 19 20 22 24 26 29 31 30 29 27 25 24 22 20 18 17 15 13 11 10 8 6 4 2 3 4 5 7 8 9 10 11 12
3 3 9 12 11 10 7 3 5 8 7 7 7 9 9 10 11 8 3 6 6 3 6 10 5 2 3 3 4 5 4 3 4 5 6 6 6 7 7 8 8 8 9 10 9 9 11 13 16 20 21 21 20 19 21 23 25 28 30 31 31 29 28 27 25 23 22 20 18 16 15 13 11 8 6 4 2 2 3 5 7 9 10 11 12 13
2 5 10 11 8 3 2 4 8 12 12 13 12 11 11 11 12 12 10 8 6 4 9 8 7 6 9 8 7 7 5 5 5 6 6 6 7 7 6 7 9 9 9 9 9 11 12 13 16 20 21 20 19 20 22 25 29 31 32 32 31 30 29 28 26 25 23 21 19 17 16 14 11 9 6 4 2 1 3 5 7 9 10 12 13 14
3 5 5 6 5 1 4 4 7 9 8 9 12 13 13 13 14 16 16 11 8 8 13 5 8 12 12 8 9 8 7 7 7 5 5 4 5 6 7 8 9 11 11 11 12 13 14 14 16 20 21 20 20 21 23 28 31 32 32 32 32 31 30 29 27 26 25 23 21 19 17 14 11 9 6 3 1 1 3 6 8 9 10 12 13 14
3 3 2 5 5 1 2 1 3 5 5 5 10 12 12 14 15 14 14 12 11 13 10 1 5 13 8 6 9 7 5 4 3 3 4 4 5 7 8 9 10 11 12 13 14 14 14 15 17 18 19 20 22 23 26 29 32 34 34 33 33 32 31 30 29 27 26 24 22 20 17 14 11 9 6 3 2 2 4 6 8 9 11 12 13 14
2 3 4 4 5 3 2 1 1 2 4 5 10 13 11 12 13 13 11 10 9 10 7 3 8 12 4 6 5 3 3 4 4 5 6 5 6 8 8 9 10 11 12 13 14 13 12 13 15 17 19 22 25 28 30 32 34 35 35 34 34 32 31 31 29 28 27 25 23 20 17 14 11 8 6 4 3 2 5 7 9 10 11 12 13 14
2 2 3 3 7 5 2 4 4 2 1 5 14 14 11 11 11 12 11 9 9 10 10 9 12 10 4 6 4 3 5 6 6 6 5 5 6 8 9 9 10 11 12 12 12 11 10 12 15 18 21 23 25 29 32 32 32 34 35 35 34 33 32 31 30 28 27 25 23 20 17 14 11 8 6 5 3 4 6 8 9 10 11 12 13 14
3 3 3 5 7 2 1 3 6 5 2 7 10 10 15 13 12 11 10 11 12 11 10 10 11 8 3 6 6 6 7 8 7 7 6 5 6 8 8 9 9 9 10 10 11 11 12 14 17 20 23 25 27 32 37 37 36 37 38 37 35 34 33 32 30 29 27 25 22 20 17 14 11 9 7 4 3 5 7 9 10 11 11 12 13 14
3 3 2 2 3 1 1 1 5 5 6 6 2 7 15 17 15 14 13 14 14 13 11 8 6 2 5 8 10 10 9 7 6 5 4 4 5 7 8 8 8 8 8 8 9 11 13 16 18 22 27 31 34 38 41 40 40 39 38 37 36 35 34 33 31 29 27 25 22 19 16 14 11 9 7 5 5 6 8 9 10 11 12 13 14 15
5 4 1 1 2 2 1 3 4 5 6 1 4 1 6 11 14 16 16 14 14 14 13 11 7 4 6 6 6 5 5 3 1 2 3 4 6 7 7 7 7 7 7 8 9 11 14 16 17 19 23 27 32 35 35 35 36 36 36 36 36 35 35 33 32 29 27 25 22 20 17 14 12 9 7 6 6 7 9 10 11 12 13 13 14 15
5 4 2 2 2 2 3 6 5 3 1 3 4 2 1 3 7 10 10 11 13 13 13 14 13 7 6 5 3 3 3 3 1 3 4 5 6 7 7 7 7 7 7 8 9 11 14 16 16 17 19 22 25 28 30 32 34 35 35 36 36 36 35 33 31 29 27 25 23 21 18 15 12 10 8 8 8 8 9 10 11 12 13 14 15 16
3 4 2 2 3 3 3 5 2 5 5 3 3 4 5 5 7 8 7 9 10 11 11 12 12 8 7 6 4 4 4 3 2 5 6 7 7 8 7 5 5 6 6 6 8 10 12 15 17 17 19 20 22 25 28 31 33 34 34 35 36 35 34 32 31 30 28 27 24 21 19 15 13 11 9 9 9 9 10 11 12 13 14 15 16 16
1 2 2 4 4 3 3 4 2 4 8 6 3 5 5 2 4 7 4 5 4 7 10 10 11 8 7 7 6 6 5 3 5 5 6 8 8 7 5 3 4 6 6 7 8 9 10 12 14 15 17 18 20 24 27 29 31 33 34 35 35 35 34 33 32 31 30 28 25 22 19 16 13 12 11 10 10 10 10 11 12 13 14 15 17 17
1 1 0 3 4 4 4 5 5 6 6 1 2 4 3 1 5 7 2 4 4 7 9 12 11 7 7 8 8 7 5 5 6 4 4 7 7 7 5 5 5 6 7 8 9 9 10 11 12 13 15 17 20 23 26 28 31 33 34 36 36 36 35 35 35 34 32 29 25 22 19 16 14 13 12 11 10 10 10 12 12 13 15 16 17 18
2 1 2 5 5 6 7 6 5 4 2 1 3 3 1 2 5 6 3 4 3 5 6 9 9 6 7 9 8 7 7 6 5 2 4 6 6 6 6 6 5 6 8 9 10 9 10 11 13 14 16 18 20 22 24 28 30 33 35 36 37 37 37 38 37 35 31 28 25 22 19 17 15 13 12 11 10 10 11 12 13 14 15 16 17 18
2 2 3 6 7 8 10 7 4 3 2 2 5 5 3 2 3 5 5 1 4 6 5 6 8 6 8 9 7 6 6 3 1 2 4 6 5 5 6 5 4 5 6 8 9 10 11 12 13 12 14 16 17 19 23 27 30 33 35 35 36 38 39 39 37 33 30 27 25 22 19 17 15 13 12 11 11 11 12 13 14 15 16 17 17 17
3 2 2 5 6 6 7 6 5 4 2 5 4 2 3 3 3 4 2 2 4 6 6 6 6 6 8 9 7 5 3 2 2 3 5 5 5 5 5 5 5 5 6 7 9 10 12 13 13 13 13 14 16 18 21 25 29 32 33 35 37 39 39 37 35 32 30 28 25 22 20 17 16 14 13 12 11 11 12 13 14 15 16 17 18 18
5 4 3 5 4 2 2 4 5 3 2 9 10 3 3 4 2 2 3 2 1 4 5 6 6 6 8 8 7 5 4 4 4 4 4 4 3 4 5 6 6 7 9 10 11 12 14 14 15 16 16 16 18 20 22 26 29 31 33 35 38 38 37 36 34 32 30 28 25 22 20 18 16 14 13 13 12 12 13 14 15 15 16 16 17 17
4 4 3 5 5 4 4 6 3 1 5 11 10 5 5 5 2 3 4 3 1 3 5 5 5 7 8 7 7 7 6 5 5 4 5 4 3 3 4 5 7 8 11 12 12 12 15 17 17 18 18 18 20 21 24 28 30 30 33 36 37 36 35 34 32 32 30 28 25 23 20 18 16 15 14 13 13 13 13 14 15 15 15 16 16 17
3 3 2 3 4 3 3 2 1 2 5 9 5 1 2 4 2 2 4 3 2 4 5 4 5 7 8 7 6 6 6 6 6 6 5 5 5 5 5 6 10 12 12 12 13 13 16 18 19 19 19 20 21 23 26 29 30 31 34 36 35 35 35 33 32 32 31 28 26 24 21 19 17 15 14 14 14 14 14 15 15 14 15 15 16 16
0 1 0 0 1 2 0 1 1 0 4 7 3 3 3 2 1 2 2 2 3 4 5 5 5 7 8 7 5 5 6 7 7 6 5 5 5 5 5 6 11 14 13 13 14 15 17 18 18 18 19 21 23 24 26 29 31 32 33 33 33 34 33 32 33 33 31 29 26 24 21 19 17 16 15 14 14 14 14 14 14 14 14 15 15 16
0 2 2 1 2 3 2 3 3 1 3 5 2 1 0 1 1 2 1 1 2 4 5 4 3 5 6 7 7 7 7 7 6 6 5 5 5 5 6 7 10 14 15 15 15 16 17 18 19 20 21 23 25 26 27 29 32 33 32 30 31 32 31 32 33 33 31 29 26 23 21 19 17 16 15 15 15 14 14 14 14 14 14 14 15 15
2 4 3 2 3 1 0 1 1 2 2 3 2 2 3 3 3 2 1 1 2 3 4 3 2 4 5 7 8 9 6 6 7 6 5 5 5 5 6 9 12 14 15 15 15 16 18 20 22 23 24 26 27 28 29 30 32 34 33 31 30 30 30 32 33 32 30 27 24 22 20 19 17 16 15 15 14 14 14 14 14 14 14 13 14 15
3 4 3 2 2 1 1 1 1 1 2 3 5 6 6 4 4 3 2 2 2 2 3 3 3 5 6 7 8 8 7 7 7 7 6 6 5 5 8 13 17 17 17 17 18 19 21 23 25 26 27 28 28 28 29 30 32 33 34 32 30 29 32 33 33 30 27 25 23 22 20 18 17 16 15 14 14 14 14 14 14 14 14 14 14 14
3 4 3 3 3 2 2 5 6 3 2 4 7 8 7 5 5 5 4 4 5 5 5 5 5 4 4 5 5 6 7 7 7 7 6 5 6 8 14 19 19 18 19 19 18 20 22 25 26 27 28 28 28 27 28 30 31 32 34 33 31 30 32 33 31 28 26 25 24 22 20 18 17 15 14 14 14 14 13 13 13 14 15 13 13 12
5 5 5 4 3 2 3 7 7 4 2 2 4 6 6 5 7 7 7 7 8 7 6 6 6 5 5 6 8 9 8 7 8 8 6 6 10 15 18 21 20 20 21 21 19 20 24 26 26 27 28 28 28 27 28 29 30 31 32 33 32 31 32 33 31 29 28 26 24 21 19 17 16 15 14 14 13 13 13 12 12 13 13 12 11 10
Wind_Direction
226 195 202 221 213 201 199 207 222 79 75 153 193 237 248 257 267 257 119 98 14 261 252 245 256 265 255 159 130 147 148 150 159 162 166 160 157 148 134 115 94 77 55 28 25 31 31 39 58 76 79 82 90 94 98 102 103 104 106 106 105 105 107 109 109 109 108 106 103 100 96 93 91 89 88 86 85 84 84 84 83 82 81 81 80 80
221 218 224 225 204 182 203 204 196 159 172 210 234 240 246 245 259 272 115 117 159 243 249 226 249 259 252 141 117 162 175 170 178 181 178 163 153 142 129 118 92 83 72 59 52 43 39 45 59 73 79 84 89 94 99 102 104 106 107 105 103 105 107 107 107 108 107 105 104 103 100 98 95 92 90 88 86 86 86 84 83 82 81 81 79 79
206 230 232 198 101 97 131 181 195 216 218 220 232 242 253 243 259 272 133 126 175 230 248 193 249 260 242 117 118 160 174 163 160 185 176 159 161 153 130 117 112 115 104 84 66 53 47 47 54 62 71 83 89 94 100 103 104 106 106 105 104 105 107 107 107 107 106 104 104 104 102 100 97 93 91 90 89 88 86 85 83 83 82 81 79 78
203 240 232 137 126 147 138 163 187 208 228 221 219 233 246 221 232 256 161 112 174 232 297 281 269 266 227 147 140 137 141 135 134 151 139 149 158 136 129 119 129 135 117 99 77 62 59 53 54 57 67 83 93 98 102 105 106 106 107 109 110 110 108 107 106 105 105 105 104 103 101 100 98 94 93 92 89 87 86 85 84 83 82 82 80 79
206 302 145 145 160 182 172 164 182 205 227 219 216 229 244 225 223 247 91 92 211 211 237 265 279 266 220 204 186 136 151 157 156 168 160 160 158 142 150 148 131 127 115 110 100 76 64 62 57 56 65 80 92 99 103 107 111 112 113 115 117 116 114 112 110 108 106 104 102 100 98 96 94 91 89 87 84 84 84 84 84 83 83 82 81 80
220 108 126 145 163 190 190 188 193 208 231 227 216 222 240 243 230 225 132 179 259 236 190 217 263 255 177 209 205 150 171 178 173 192 184 167 168 173 167 156 147 137 132 117 109 96 74 77 71 62 65 68 78 93 102 107 113 116 118 121 122 122 120 120 119 117 114 111 107 103 97 91 88 83 79 80 82 83 83 83 83 83 82 81 80 79
212 132 140 148 163 182 195 218 196 191 230 248 217 215 230 241 229 196 179 198 252 266 103 201 255 254 173 196 178 159 187 186 182 201 195 181 178 179 171 160 160 154 151 145 123 114 98 92 88 75 70 70 81 98 106 110 114 118 121 124 124 124 123 123 122 123 122 120 117 113 105 95 88 86 82 85 87 87 87 86 84 83 81 79 78 77
152 152 171 172 169 177 200 227 184 178 220 242 70 190 201 206 207 196 192 206 245 320 126 205 248 274 254 192 133 156 190 197 202 208 198 190 186 178 175 170 168 167 161 151 141 130 116 102 95 89 81 84 101 111 114 117 119 122 125 126 126 125 125 125 125 126 124 121 118 113 107 101 96 96 94 92 91 91 90 88 85 82 80 78 77 75
136 173 190 181 181 200 208 219 159 176 212 286 72 104 143 173 190 181 192 214 251 300 235 204 178 258 255 192 124 161 208 220 206 201 196 187 184 179 178 179 174 170 165 156 150 139 126 112 97 98 96 99 114 117 118 120 121 122 124 126 126 124 124 125 126 126 123 120 116 112 109 105 102 100 98 95 92 91 90 88 85 81 78 76 74 73
56 204 212 183 191 207 175 44 146 185 198 129 121 103 93 86 101 136 199 198 163 239 243 204 175 227 261 192 165 178 232 231 197 190 192 179 179 182 178 180 177 168 165 165 158 146 136 125 111 112 111 112 120 120 120 121 120 120 122 123 123 121 121 122 124 123 120 117 114 112 110 108 106 103 100 97 92 89 88 85 82 79 76 74 71 69
69 26 315 207 204 167 105 60 30 122 128 143 140 109 98 89 91 106 163 152 213 237 237 195 180 217 259 206 196 196 230 207 172 174 177 170 178 182 180 182 178 172 168 167 163 158 152 141 134 128 121 120 124 123 123 122 121 121 121 122 121 119 120 121 120 119 117 115 113 112 111 109 107 105 101 96 92 88 87 83 79 77 74 71 68 65
131 163 197 183 90 106 111 86 48 52 122 161 156 136 129 117 133 156 139 176 242 236 187 78 177 218 237 222 195 174 117 154 172 174 171 173 180 180 181 183 178 175 169 166 168 165 164 160 155 145 133 130 129 127 126 125 124 122 121 122 121 119 119 119 119 118 116 114 113 112 111 108 106 104 100 95 91 88 85 81 78 75 71 67 64 60
203 199 157 98 238 181 149 119 84 92 195 207 166 165 180 176 174 210 195 197 242 238 71 31 192 222 240 246 235 168 157 175 181 173 171 173 177 177 179 180 176 174 171 170 172 170 172 171 165 159 151 145 140 136 134 131 127 125 123 124 123 121 120 120 119 118 116 115 113 112 109 107 104 100 97 93 90 87 83 81 77 73 69 64 60 56
202 205 155 168 203 203 186 171 160 170 187 194 179 179 192 180 187 215 196 226 259 220 59 6 204 223 248 256 261 156 131 118 73 47 173 171 173 175 174 174 174 173 176 176 175 177 180 177 171 167 161 156 152 146 141 137 133 130 128 128 126 124 124 123 122 120 118 115 113 111 108 105 102 98 95 92 89 86 82 78 75 72 67 63 59 54
211 245 179 179 165 172 192 203 163 147 166 190 186 191 205 193 210 221 200 231 260 115 104 109 191 207 198 161 359 37 63 59 68 44 122 163 163 164 165 170 174 177 181 180 179 185 184 179 175 171 168 162 157 153 148 143 138 134 132 131 129 128 127 126 124 121 118 115 112 110 107 104 101 98 94 91 87 84 80 75 72 70 66 63 58 53
220 270 150 152 68 169 183 205 81 125 157 183 72 197 233 227 187 187 315 59 62 66 183 182 229 246 199 126 80 47 44 72 95 112 163 167 159 160 169 177 181 183 182 182 185 188 186 183 180 175 172 166 160 159 154 148 144 139 136 134 133 132 131 129 127 123 120 116 113 109 106 103 100 96 93 89 85 81 77 72 69 65 62 59 54 48
201 274 86 75 349 169 179 158 116 153 165 149 174 198 206 353 98 128 191 77 71 266 222 170 227 254 197 201 135 117 158 158 158 178 183 180 171 174 185 188 188 185 182 184 187 188 186 186 186 182 176 170 167 164 159 153 148 144 142 140 138 136 134 133 129 126 123 119 115 110 107 103 99 95 91 87 82 76 70 66 62 58 54 51 45 40
185 179 107 115 150 97 341 29 96 357 56 142 186 189 136 21 341 191 237 156 180 252 249 178 222 217 185 208 135 149 193 193 188 186 183 184 183 190 197 192 188 184 180 184 188 190 192 189 188 185 181 176 172 167 162 157 151 148 147 145 143 140 139 137 134 130 127 123 118 114 109 105 99 95 89 84 78 72 66 61 57 53 50 46 41 35
197 194 120 80 146 106 341 215 142 43 333 121 200 164 118 223 204 174 223 225 200 240 255 190 218 226 204 198 164 186 202 197 185 179 184 192 194 198 198 190 186 182 180 187 191 193 193 191 189 187 184 180 175 170 164 159 155 152 151 148 146 145 143 141 138 135 132 128 124 119 115 108 102 96 91 86 79 71 65 61 57 53 49 45 39 33
187 226 189 109 117 122 156 212 189 176 166 26 175 160 277 265 215 171 188 210 214 237 256 210 206 216 207 196 184 195 200 186 175 178 195 200 199 197 192 186 186 186 188 191 191 192 191 190 191 189 186 182 177 173 167 162 159 157 155 152 151 149 147 145 144 141 138 135 130 124 120 113 107 101 95 88 80 69 64 61 57 53 46 41 35 28
133 232 203 119 130 176 182 208 202 183 171 173 180 177 186 197 30 253 214 148 226 238 241 254 258 207 178 192 192 194 195 177 174 184 197 200 198 194 190 187 186 186 191 191 187 188 189 188 191 190 185 181 178 175 171 166 164 161 159 157 156 155 153 152 152 150 146 142 138 132 125 121 114 107 100 91 80 69 63 59 53 49 43 37 31 25
169 200 172 147 182 198 199 319 308 237 187 186 191 185 183 172 153 205 218 167 194 253 227 255 275 234 146 135 206 179 231 185 186 192 194 193 192 192 194 192 188 187 189 189 186 185 184 185 187 186 181 180 181 180 177 173 169 167 164 163 163 162 161 161 160 158 154 150 147 142 135 132 125 118 111 98 80 69 62 57 51 45 38 31 24 18
112 139 150 144 187 209 319 9 334 303 318 295 244 202 187 186 178 201 220 182 168 228 86 55 277 275 132 149 162 130 333 303 232 209 199 196 192 193 197 193 191 192 184 180 182 181 184 186 183 180 182 186 187 185 181 178 175 172 171 170 169 169 169 168 166 164 162 158 156 153 149 146 142 135 124 105 87 76 66 56 45 35 27 21 15 10
103 158 163 137 107 70 14 36 231 331 309 236 246 207 194 205 191 210 219 142 189 202 148 188 249 240 131 152 138 91 341 324 266 216 198 198 195 193 194 191 191 190 176 172 178 181 184 184 180 181 186 190 191 188 184 181 180 178 178 177 176 176 175 173 171 169 168 166 166 165 163 162 156 149 140 128 108 82 60 45 34 26 18 12 7 3
177 181 169 158 171 182 193 205 209 211 210 223 215 179 195 178 122 85 92 126 241 206 167 210 250 209 125 126 102 47 343 293 255 220 204 200 197 191 189 192 192 182 173 176 182 186 186 184 184 187 190 193 193 190 185 184 185 184 183 182 181 180 180 177 176 175 174 175 176 174 174 173 167 163 160 150 121 75 52 38 28 18 10 5 360 356
179 186 175 177 190 195 198 206 202 178 176 213 186 175 197 178 158 164 163 197 229 178 165 211 242 185 105 76 270 244 244 264 236 209 216 217 201 194 190 191 188 178 181 187 187 187 185 185 187 189 192 195 193 188 186 187 188 188 187 187 186 185 184 182 181 180 180 182 183 182 180 180 177 175 173 163 131 81 52 32 19 9 1 357 354 352
166 208 200 204 208 199 191 170 135 131 153 194 190 177 191 189 179 182 194 211 204 144 200 217 207 213 202 173 229 233 200 228 231 195 210 220 206 199 192 187 185 185 190 188 182 180 183 189 192 193 196 196 192 189 188 190 192 191 191 190 189 189 188 186 185 185 186 188 188 187 185 185 184 183 180 172 144 81 38 18 6 359 354 350 349 348
146 212 216 223 232 219 101 108 144 157 178 197 191 183 188 183 178 189 210 210 148 138 241 215 149 207 223 179 203 225 188 204 222 192 198 210 198 189 179 178 186 193 192 183 181 187 191 196 197 196 196 194 191 190 192 196 196 195 194 193 192 193 192 190 189 189 190 191 191 190 189 189 189 189 187 181 152 46 13 3 356 351 347 344 343 342
164 208 218 212 223 56 71 103 151 163 179 195 192 188 185 176 178 196 213 208 164 204 249 228 158 215 230 189 196 215 200 204 207 187 185 186 173 170 172 182 192 198 197 192 194 197 198 200 198 194 192 190 191 193 195 199 200 198 197 196 196 197 196 194 192 191 192 193 192 193 192 192 193 193 192 188 186 349 353 351 347 343 340 338 337 336
170 197 168 182 200 150 90 102 133 152 171 198 204 199 185 180 187 199 210 207 205 228 249 155 195 233 233 180 194 209 197 183 162 159 172 172 171 170 177 192 202 204 202 199 201 202 201 201 196 190 187 188 192 195 197 200 201 200 199 199 199 199 198 196 194 193 194 194 194 195 193 193 196 197 197 204 236 308 340 341 338 335 333 332 330 330
227 189 131 155 193 195 186 169 105 164 188 212 232 222 190 176 190 206 216 205 206 235 239 206 246 253 215 145 168 165 130 130 149 176 183 178 172 168 179 199 208 209 209 208 207 203 199 196 191 187 188 192 197 200 201 202 202 201 200 200 200 199 198 197 195 194 195 195 196 195 194 196 198 200 206 217 244 309 335 332 328 326 326 326 325 325
221 187 114 160 198 207 204 171 145 105 115 255 254 230 182 172 192 206 217 202 190 218 229 229 245 249 183 136 138 133 151 173 183 182 181 178 169 171 188 203 209 211 211 210 207 199 194 193 192 192 194 197 200 201 203 204 203 202 201 201 200 199 199 198 195 195 195 196 197 195 195 199 200 204 215 224 256 314 326 321 319 319 320 321 321 322
184 168 139 180 191 201 312 183 145 112 142 257 255 194 169 190 208 207 218 216 203 208 218 224 236 238 166 145 164 181 189 196 195 185 183 181 171 182 199 204 208 212 209 208 204 197 196 196 195 196 199 201 203 206 208 208 207 206 204 202 200 200 199 197 196 196 196 197 198 197 198 201 204 209 218 231 278 307 312 309 310 313 314 316 319 320
165 152 141 181 172 151 321 143 131 152 208 242 259 150 172 192 198 201 216 216 207 210 221 232 239 193 140 162 184 195 198 196 193 189 181 171 173 189 203 206 209 209 205 204 200 197 199 198 197 202 205 207 209 211 212 210 208 208 206 202 201 200 198 197 196 196 197 198 198 199 201 204 208 213 223 244 279 293 298 301 305 308 310 314 317 318
164 159 153 112 112 111 124 144 168 212 224 214 33 43 193 190 192 205 220 219 209 214 225 235 234 172 160 182 185 182 178 153 149 204 194 182 182 183 193 203 206 202 200 202 202 201 202 200 200 204 206 208 210 211 210 209 208 207 205 202 201 199 198 198 196 197 198 199 201 202 204 208 211 216 230 252 271 283 290 296 300 304 309 314 316 317
167 165 133 105 128 118 141 182 201 267 304 93 64 36 140 151 184 208 233 234 219 213 218 228 232 204 165 171 141 99 102 101 90 246 215 196 194 189 193 198 196 197 200 199 200 201 202 202 204 205 206 209 212 212 210 209 208 206 203 201 200 199 198 198 197 197 200 202 204 205 207 210 214 221 236 252 264 276 284 292 298 303 309 313 314 315
173 175 155 171 183 143 165 208 244 333 297 222 160 176 176 164 168 181 222 239 217 202 202 218 231 211 160 151 136 105 107 124 226 242 213 202 207 205 203 191 171 185 197 199 208 213 213 214 215 215 215 214 214 213 211 210 208 203 200 198 197 197 197 197 198 201 203 205 206 208 210 213 217 226 238 249 260 270 280 290 297 302 308 311 311 311
203 204 189 199 199 155 175 222 245 275 259 241 174 168 178 181 153 157 213 247 191 175 181 196 222 215 155 139 143 134 139 193 244 235 195 191 200 201 210 208 170 171 176 183 198 207 209 212 214 215 215 212 211 212 211 209 205 200 197 196 195 196 196 198 202 205 206 207 208 210 212 215 221 230 239 247 256 268 282 291 297 303 306 307 307 309
91 16 117 211 202 173 193 222 220 231 250 252 139 147 147 158 126 121 220 257 175 167 178 187 210 207 147 142 154 150 163 216 241 227 170 177 187 180 193 212 196 181 180 180 183 184 187 189 192 197 201 202 204 207 207 205 202 196 195 196 195 196 198 201 206 208 208 208 209 211 214 218 224 232 238 247 259 272 284 291 296 300 303 303 305 307
167 176 199 216 215 201 206 221 230 244 271 122 156 154 163 201 140 139 226 256 168 172 179 181 198 188 143 149 159 165 189 217 234 206 143 150 162 167 186 202 189 180 186 185 181 177 176 176 175 180 188 194 199 201 200 199 197 195 196 197 196 198 203 208 211 210 208 208 210 212 215 219 226 233 239 250 264 274 282 289 293 296 299 300 302 304
174 186 197 216 225 219 216 224 242 254 244 172 178 178 178 180 161 187 217 179 148 182 187 182 190 170 145 156 170 187 204 213 56 96 120 128 140 165 185 190 174 172 181 186 185 180 177 181 183 186 192 198 200 199 197 195 194 195 198 197 198 204 210 213 212 209 207 208 210 213 216 221 227 233 242 252 263 272 279 286 290 293 296 297 299 301
168 163 194 217 224 224 223 232 248 253 189 129 136 183 206 183 179 199 194 90 148 182 182 186 186 161 156 174 186 187 167 124 117 129 137 148 152 150 157 161 165 171 174 181 190 192 190 192 197 201 205 205 205 204 201 197 196 199 199 199 205 212 214 213 210 208 208 209 211 214 218 222 228 233 243 253 261 269 277 282 287 290 292 294 296 299
162 156 190 209 200 188 218 222 230 251 163 131 125 130 235 213 175 136 117 85 127 161 164 179 182 172 176 187 190 175 138 143 168 154 146 161 148 126 146 165 173 177 177 182 192 199 201 202 207 210 212 211 209 208 203 200 200 200 201 206 213 216 214 212 210 207 208 210 211 215 218 222 228 234 243 253 260 267 274 279 282 285 288 291 294 297
178 173 198 209 188 172 200 213 211 165 166 161 152 161 200 192 146 130 144 138 143 163 167 178 186 190 192 190 186 174 157 169 191 177 166 172 155 144 167 179 182 186 187 193 201 206 206 209 213 215 215 215 213 209 205 204 203 201 206 214 218 215 212 212 209 206 208 210 211 215 218 221 228 235 242 251 260 265 270 274 278 281 285 288 291 296
202 179 192 211 195 185 194 214 14 53 173 179 165 70 139 147 135 164 145 128 153 179 179 182 183 189 198 199 186 173 173 189 195 185 181 179 176 185 189 189 197 201 200 205 212 214 214 216 217 216 215 218 217 213 211 210 207 206 213 219 219 215 214 211 206 205 207 209 211 214 217 220 226 234 241 249 256 262 266 270 274 277 282 285 289 293
24 98 204 214 201 235 281 111 90 318 199 189 157 53 68 102 161 184 149 141 167 170 174 185 181 180 191 195 182 181 198 200 192 186 187 182 183 190 187 192 204 206 204 208 214 216 216 215 216 217 218 221 221 219 217 215 212 214 220 221 218 216 215 209 205 205 206 208 210 212 214 219 225 231 239 247 253 258 263 267 271 274 278 283 286 290
209 153 177 219 214 223 199 150 138 153 215 209 191 83 25 278 222 196 183 139 149 165 181 194 178 165 174 179 186 202 209 196 186 189 189 186 191 191 188 196 205 205 208 214 218 218 214 211 213 218 221 224 226 226 224 222 219 219 222 222 219 216 212 207 205 206 206 206 208 210 213 219 224 228 236 244 249 255 261 265 268 272 275 280 285 288
176 150 161 213 214 197 145 158 118 0 298 254 236 239 238 218 182 183 202 82 106 163 184 180 142 143 163 183 199 208 206 191 192 195 187 190 199 195 193 204 209 213 219 223 222 218 214 213 216 220 223 228 232 231 228 227 225 222 221 223 222 215 209 206 207 207 207 207 208 212 215 218 222 228 235 243 249 255 260 264 268 272 275 280 283 284
123 151 168 175 168 135 349 214 169 352 300 234 215 231 238 211 165 169 178 151 144 165 171 188 201 185 182 191 197 201 205 202 201 199 194 194 197 195 204 213 216 219 224 227 225 221 218 219 221 222 226 231 234 233 231 231 228 224 221 222 220 213 208 207 206 207 208 209 210 214 216 217 223 229 235 244 251 255 259 264 269 272 275 277 279 281
150 181 163 128 163 204 200 174 167 172 219 207 205 220 226 193 158 165 174 182 201 198 182 194 209 202 206 217 202 195 208 214 207 203 203 201 200 203 211 215 218 222 226 228 227 223 223 225 226 226 229 233 234 234 233 232 229 226 222 220 217 213 209 207 205 205 208 210 212 214 216 219 225 230 235 243 250 254 258 264 269 273 276 279 281 286
188 189 166 160 195 216 170 169 176 191 216 202 199 214 213 174 160 180 197 201 207 204 190 194 200 195 210 227 212 202 210 218 208 201 202 215 217 216 218 218 218 221 226 225 220 220 223 226 227 228 230 233 233 233 233 232 229 227 223 219 216 213 210 208 206 206 208 211 213 215 218 222 227 231 235 240 246 252 257 261 266 273 280 283 282 284